DW3753 Weather Reports


Display with metric or nautical units.
time (UTC)temp
F
wind
direction
speed
MPH
gust
MPH
rain 1hr
in
rain 24hr
in
rain mn
in
humidity
%
barometer
mb
20260905000604 96 162 2.0 7.0 0.00 0.07 0.07 41 1008.8
20260904235559 96 170 3.0 8.0 0.00 0.07 0.07 42 1008.8
20260904234600 97 186 3.0 11.0 0.00 0.07 0.07 42 1008.8
20260904233555 97 73 3.0 9.0 0.00 0.07 0.07 41 1008.8
20260904232555 98 91 2.0 7.0 0.00 0.07 0.07 40 1008.8
20260904231555 98 81 4.0 10.0 0.00 0.07 0.07 40 1008.8
20260904230553 98 167 4.0 11.0 0.00 0.07 0.07 40 1008.8
20260904225553 98 159 4.0 10.0 0.00 0.07 0.07 41 1008.8
20260904224554 98 188 4.0 12.0 0.00 0.07 0.07 41 1008.9
20260904224027 97 159 3.0 8.0 0.00 0.07 0.07 42 1009.0
20260904222553 98 149 3.0 10.0 0.00 0.07 0.07 42 1009.1
20260904221557 98 167 4.0 10.0 0.00 0.07 0.07 42 1009.2
20260904220548 98 99 3.0 10.0 0.00 0.07 0.07 43 1009.2
20260904215547 98 96 2.0 10.0 0.00 0.07 0.07 43 1009.1
20260904214546 98 94 2.0 10.0 0.00 0.07 0.07 43 1009.3
20260904213553 99 109 3.0 8.0 0.00 0.07 0.07 44 1009.4
20260904212547 98 78 5.0 12.0 0.00 0.07 0.07 44 1009.5
20260904211547 97 210 7.0 14.0 0.00 0.07 0.07 43 1009.6
20260904211024 97 227 5.0 14.0 0.00 0.07 0.07 45 1009.8
20260904205547 97 178 3.0 10.0 0.00 0.07 0.07 45 1009.8
20260904204548 98 141 6.0 14.0 0.00 0.07 0.07 44 1010.0
20260904203542 97 170 7.0 14.0 0.00 0.07 0.07 42 1010.1
20260904202546 97 178 8.0 19.0 0.00 0.07 0.07 42 1010.3
20260904202021 97 168 6.0 14.0 0.00 0.07 0.07 42 1010.4
20260904200542 97 169 6.0 13.0 0.00 0.07 0.07 44 1010.5
20260904195543 97 186 7.0 12.0 0.00 0.07 0.07 46 1010.6
20260904194543 96 202 6.0 13.0 0.00 0.07 0.07 46 1010.7
20260904193542 95 154 6.0 17.0 0.00 0.07 0.07 47 1010.9
20260904192543 95 216 6.0 12.0 0.00 0.07 0.07 47 1011.1
20260904191542 95 146 7.0 18.0 0.00 0.07 0.07 48 1011.2
20260904190536 94 191 8.0 14.0 0.00 0.07 0.07 49 1011.3
20260904190019 94 172 5.0 12.0 0.00 0.07 0.07 50 1011.5
20260904184537 94 165 4.0 11.0 0.00 0.07 0.07 51 1011.7
20260904184022 93 180 5.0 14.0 0.00 0.07 0.07 51 1011.8
20260904182535 92 180 5.0 19.0 0.00 0.07 0.07 50 1011.9
20260904181534 92 150 6.0 11.0 0.00 0.07 0.07 52 1012.0
20260904181025 91 193 6.0 14.0 0.00 0.07 0.07 52 1012.2
20260904175535 90 176 8.0 13.0 0.00 0.07 0.07 53 1012.4
20260904174540 89 224 9.0 15.0 0.00 0.07 0.07 52 1012.5
20260904173531 89 216 9.0 16.0 0.00 0.07 0.07 53 1012.6
20260904172531 88 207 10.0 16.0 0.00 0.07 0.07 52 1012.7
20260904171529 88 192 9.0 15.0 0.00 0.07 0.07 53 1012.8
20260904170529 87 215 10.0 14.0 0.00 0.07 0.07 54 1012.9
20260904165529 86 219 10.0 17.0 0.00 0.07 0.07 55 1013.1
20260904164529 86 209 11.0 16.0 0.00 0.07 0.07 55 1013.1
20260904163530 86 194 10.0 18.0 0.00 0.07 0.07 57 1013.1
20260904162531 85 180 11.0 18.0 0.00 0.07 0.07 59 1013.2
20260904161530 84 161 11.0 19.0 0.00 0.07 0.07 64 1013.2
20260904160525 83 197 10.0 21.0 0.00 0.07 0.07 74 1013.1
20260904160010 82 200 8.0 15.0 0.01 0.07 0.07 75 1013.1
20260904154523 82 178 9.0 14.0 0.03 0.07 0.07 75 1013.1
20260904153524 82 154 9.0 19.0 0.05 0.07 0.07 76 1012.9
20260904152524 82 193 8.0 15.0 0.05 0.07 0.07 80 1012.9
20260904151522 81 186 6.0 12.0 0.05 0.07 0.07 81 1013.0
20260904150528 80 182 7.0 11.0 0.05 0.07 0.07 82 1012.9
20260904145523 80 185 7.0 11.0 0.04 0.06 0.06 82 1012.9
20260904144524 81 220 6.0 11.0 0.02 0.04 0.04 81 1012.8
20260904143519 80 172 5.0 11.0 0.00 0.02 0.02 83 1012.7
20260904142518 80 148 5.0 13.0 0.00 0.02 0.02 84 1012.6
20260904141521 79 134 4.0 10.0 0.00 0.02 0.02 83 1012.7
20260904140519 80 167 2.0 7.0 0.00 0.02 0.02 83 1012.8
20260904135954 80 157 1.0 7.0 0.00 0.02 0.02 84 1012.7
20260904134517 80 139 2.0 6.0 0.00 0.02 0.02 84 1012.6
20260904134016 79 183 2.0 6.0 0.00 0.02 0.02 84 1012.5
20260904132517 79 146 2.0 8.0 0.00 0.02 0.02 84 1012.4
20260904131521 79 139 4.0 14.0 0.00 0.02 0.02 84 1012.3
20260904130946 79 147 4.0 9.0 0.00 0.02 0.02 85 1012.2
20260904125954 78 149 2.0 7.0 0.00 0.02 0.02 86 1012.1
20260904124511 78 178 2.0 6.0 0.00 0.02 0.02 86 1011.9
20260904123511 78 154 3.0 7.0 0.00 0.02 0.02 86 1012.0
20260904123000 78 150 2.0 6.0 0.00 0.02 0.02 86 1012.0
20260904122008 78 175 1.0 6.0 0.00 0.02 0.02 86 1011.9
20260904120512 78 168 2.0 6.0 0.00 0.02 0.02 86 1011.8
20260904115510 78 161 2.0 6.0 0.00 0.02 0.02 86 1011.6
20260904114512 78 153 4.0 7.0 0.00 0.02 0.02 86 1011.5
20260904113506 78 155 3.0 7.0 0.00 0.02 0.02 86 1011.4
20260904112509 78 150 1.0 6.0 0.00 0.02 0.02 86 1011.4
20260904111506 78 162 1.0 7.0 0.00 0.02 0.02 86 1011.5
20260904110505 78 167 2.0 6.0 0.00 0.02 0.02 86 1011.3
20260904110431 78 163 2.0 7.0 0.00 0.02 0.02 86 1011.3
20260904104505 78 165 2.0 7.0 0.00 0.02 0.02 85 1011.4
20260904103507 78 144 2.0 7.0 0.02 0.02 0.02 85 1011.3
20260904102507 78 153 2.0 8.0 0.02 0.02 0.02 85 1011.2
20260904101506 78 155 2.0 6.0 0.02 0.02 0.02 84 1011.1
20260904100501 78 167 3.0 8.0 0.02 0.02 0.02 84 1011.2
20260904095501 78 191 6.0 13.0 0.02 0.02 0.02 83 1011.1
20260904094500 79 192 7.0 13.0 0.02 0.02 0.02 82 1010.9
20260904093946 80 159 6.0 14.0 0.00 0.00 0.00 81 1011.1
20260904092459 80 157 5.0 11.0 0.00 0.00 0.00 81 1011.1
20260904091500 79 159 5.0 11.0 0.00 0.00 0.00 81 1010.9
20260904090500 80 149 5.0 10.0 0.00 0.00 0.00 81 1010.8
20260904085500 80 194 5.0 11.0 0.00 0.00 0.00 81 1010.9
20260904085424 79 157 5.0 10.0 0.00 0.00 0.00 80 1010.8
20260904083456 79 181 5.0 11.0 0.00 0.00 0.00 80 1010.8
20260904082453 79 166 4.0 11.0 0.00 0.00 0.00 80 1010.9
20260904081455 79 157 4.0 10.0 0.00 0.00 0.00 80 1010.9
20260904080453 79 167 5.0 12.0 0.00 0.00 0.00 80 1011.1
20260904080410 79 163 5.0 9.0 0.00 0.00 0.00 79 1010.9
20260904074455 79 165 4.0 12.0 0.00 0.00 0.00 79 1010.8
20260904073455 80 148 4.0 10.0 0.00 0.00 0.00 78 1010.9
20260904072455 80 153 5.0 13.0 0.00 0.00 0.00 78 1010.9
20260904071454 80 165 5.0 10.0 0.00 0.00 0.00 78 1011.1
20260904070449 80 183 5.0 12.0 0.00 0.00 0.00 77 1011.2
20260904065452 80 158 5.0 11.0 0.00 0.00 0.00 76 1011.3
20260904064449 80 158 5.0 13.0 0.00 0.00 0.00 75 1011.5
20260904063448 80 162 5.0 12.0 0.00 0.00 0.00 74 1011.3
20260904062449 80 163 6.0 13.0 0.00 0.00 0.00 73 1011.3
20260904061449 80 149 5.0 15.0 0.00 0.00 0.00 72 1011.3
20260904060449 80 143 4.0 13.0 0.00 0.00 0.00 72 1011.5
20260904055448 81 178 4.0 9.0 0.00 0.00 0.00 71 1011.3
20260904054449 81 140 4.0 13.0 0.00 0.00 0.00 70 1011.6
20260904053443 81 171 3.0 8.0 0.00 0.00 0.00 69 1011.5
20260904052442 81 148 4.0 12.0 0.00 0.00 0.00 69 1011.2
20260904051443 82 142 4.0 17.0 0.00 0.00 0.00 68 1010.9
20260904050441 82 182 4.0 10.0 0.00 0.00 0.00 67 1011.3
20260904045441 82 137 3.0 10.0 0.00 0.00 0.00 67 1011.4
20260904044440 82 146 3.0 10.0 0.00 0.00 0.00 67 1011.4
20260904043439 82 154 3.0 9.0 0.00 0.00 0.00 66 1011.3
20260904042441 82 154 3.0 9.0 0.00 0.00 0.00 66 1011.2
20260904041920 82 181 3.0 12.0 0.00 0.00 0.00 66 1011.2
20260904040435 83 101 2.0 9.0 0.00 0.00 0.00 66 1011.2
20260904035438 83 168 2.0 7.0 0.00 0.00 0.00 66 1011.2
20260904034435 83 137 3.0 9.0 0.00 0.00 0.00 66 1011.2
20260904033434 83 149 3.0 10.0 0.00 0.00 0.00 65 1011.1
20260904032920 84 125 2.0 7.0 0.00 0.00 0.00 65 1010.9
20260904031433 84 98 3.0 8.0 0.00 0.00 0.00 65 1010.8
20260904030433 84 144 3.0 7.0 0.00 0.00 0.00 64 1010.8
20260904025433 84 112 2.0 7.0 0.00 0.00 0.00 63 1010.7
20260904024925 84 121 2.0 8.0 0.00 0.00 0.00 62 1010.7
20260904023429 85 135 3.0 11.0 0.00 0.00 0.00 62 1010.5
20260904022429 85 129 3.0 8.0 0.00 0.00 0.00 62 1010.4
20260904021430 85 99 4.0 12.0 0.00 0.00 0.00 61 1010.3
20260904020429 85 165 3.0 9.0 0.00 0.00 0.00 60 1010.1
20260904015438 85 125 4.0 13.0 0.00 0.00 0.00 60 1009.9
20260904014427 86 144 4.0 10.0 0.00 0.00 0.00 60 1009.8
20260904013427 86 149 3.0 10.0 0.00 0.00 0.00 61 1009.6
20260904012427 86 86 3.0 14.0 0.00 0.00 0.00 61 1009.4
20260904011432 87 151 3.0 11.0 0.00 0.00 0.00 61 1009.2
20260904010428 87 157 3.0 8.0 0.00 0.00 0.00 61 1009.1
20260904005423 88 138 4.0 11.0 0.00 0.00 0.00 60 1009.0
20260904004422 88 198 4.0 10.0 0.00 0.00 0.00 60 1009.0
20260904003423 88 82 4.0 9.0 0.00 0.00 0.00 60 1008.9
20260904002422 89 176 4.0 14.0 0.00 0.00 0.00 60 1009.0